| time (UTC) | temp C | wind direction | speed KPH | gust KPH | rain 1hr cm | rain 24hr cm | rain mn cm | humidity % | barometer mb |
| 20260504015200 | 16 | 291 | 0.0 | 0.0 | 0.00 | 0.00 | 0.00 | 27 | 1006.0 |
| 20260504011941 | 18 | 294 | 0.0 | 0.0 | 0.00 | 0.00 | 0.00 | 21 | 1005.9 |
| 20260504005830 | 20 | 269 | 1.6 | 3.2 | 0.00 | 0.00 | 0.00 | 17 | 1005.8 |
| 20260504004829 | 20 | 264 | 4.8 | 19.3 | 0.00 | 0.00 | 0.00 | 16 | 1005.9 |
| 20260504003836 | 21 | 259 | 1.6 | 9.7 | 0.00 | 0.00 | 0.00 | 16 | 1006.1 |
| 20260504000657 | 20 | 210 | 1.6 | 0.0 | 0.00 | 0.00 | 0.00 | 7 | 1006.1 |
| 20260503235702 | 20 | 267 | 1.6 | 11.3 | 0.00 | 0.00 | 0.00 | 7 | 1006.3 |
| 20260503234724 | 20 | 212 | 1.6 | 6.4 | 0.00 | 0.00 | 0.00 | 7 | 1006.3 |
| 20260503233652 | 21 | 115 | 0.0 | 4.8 | 0.00 | 0.00 | 0.00 | 5 | 1006.3 |
| 20260503231604 | 20 | 257 | 1.6 | 4.8 | 0.00 | 0.00 | 0.00 | 10 | 1006.8 |
| 20260503230540 | 20 | 181 | 1.6 | 8.0 | 0.00 | 0.00 | 0.00 | 12 | 1007.0 |
| 20260503225551 | 20 | 313 | 0.0 | 8.0 | 0.00 | 0.00 | 0.00 | 8 | 1006.8 |
| 20260503224547 | 20 | 156 | 1.6 | 6.4 | 0.00 | 0.00 | 0.00 | 8 | 1006.9 |
| 20260503222338 | 20 | 233 | 6.4 | 16.1 | 0.00 | 0.00 | 0.00 | 9 | 1007.2 |
| 20260503221309 | 20 | 146 | 3.2 | 16.1 | 0.00 | 0.00 | 0.00 | 7 | 1007.4 |
| 20260503220322 | 21 | 217 | 3.2 | 12.9 | 0.00 | 0.00 | 0.00 | 7 | 1007.4 |
| 20260503215344 | 20 | 314 | 3.2 | 12.9 | 0.00 | 0.00 | 0.00 | 7 | 1007.5 |
| 20260503214351 | 20 | 224 | 0.0 | 6.4 | 0.00 | 0.00 | 0.00 | 8 | 1007.7 |
| 20260503211139 | 18 | 39 | 0.0 | 0.0 | 0.00 | 0.00 | 0.00 | 15 | 1008.8 |
| 20260503210157 | 18 | 91 | 0.0 | 3.2 | 0.00 | 0.00 | 0.00 | 13 | 1008.9 |
| 20260503205157 | 18 | 225 | 0.0 | 0.0 | 0.00 | 0.00 | 0.00 | 12 | 1009.1 |
| 20260503204131 | 19 | 199 | 0.0 | 3.2 | 0.00 | 0.00 | 0.00 | 12 | 1009.2 |
| 20260503202048 | 20 | 40 | 0.0 | 3.2 | 0.00 | 0.00 | 0.00 | 12 | 1009.3 |
| 20260503201045 | 19 | 34 | 0.0 | 3.2 | 0.00 | 0.00 | 0.00 | 12 | 1009.6 |
| 20260503200051 | 19 | 32 | 0.0 | 6.4 | 0.00 | 0.00 | 0.00 | 11 | 1009.7 |
| 20260503195113 | 19 | 31 | 1.6 | 6.4 | 0.00 | 0.00 | 0.00 | 11 | 1009.8 |
| 20260503194106 | 18 | 299 | 0.0 | 3.2 | 0.00 | 0.00 | 0.00 | 16 | 1009.9 |
| 20260503193130 | 18 | 158 | 1.6 | 11.3 | 0.00 | 0.00 | 0.00 | 15 | 1010.2 |
| 20260503192152 | 18 | 169 | 1.6 | 11.3 | 0.00 | 0.00 | 0.00 | 13 | 1010.2 |
| 20260503191146 | 18 | 262 | 0.0 | 6.4 | 0.00 | 0.00 | 0.00 | 12 | 1010.3 |
| 20260503184939 | 18 | 172 | 0.0 | 9.7 | 0.00 | 0.00 | 0.00 | 15 | 1010.8 |
| 20260503183907 | 18 | 342 | 0.0 | 0.0 | 0.00 | 0.00 | 0.00 | 14 | 1011.0 |
| 20260503181804 | 18 | 353 | 0.0 | 0.0 | 0.00 | 0.00 | 0.00 | 16 | 1011.4 |
| 20260503180813 | 17 | 297 | 0.0 | 0.0 | 0.00 | 0.00 | 0.00 | 13 | 1011.6 |
| 20260503175812 | 18 | 301 | 0.0 | 0.0 | 0.00 | 0.00 | 0.00 | 14 | 1011.8 |
| 20260503174830 | 18 | 337 | 0.0 | 0.0 | 0.00 | 0.00 | 0.00 | 19 | 1012.0 |
| 20260503173839 | 17 | 35 | 0.0 | 3.2 | 0.00 | 0.00 | 0.00 | 15 | 1012.2 |
| 20260503172834 | 17 | 70 | 0.0 | 3.2 | 0.00 | 0.00 | 0.00 | 16 | 1012.4 |
| 20260503170717 | 17 | 15 | 0.0 | 3.2 | 0.00 | 0.00 | 0.00 | 21 | 1012.8 |
| 20260503150554 | 10 | 233 | 0.0 | 4.8 | 0.00 | 0.00 | 0.00 | 35 | 1015.9 |
| 20260503130452 | 0 | 84 | 0.0 | 0.0 | 0.00 | 0.00 | 0.00 | 63 | 1016.1 |
| 20260503080740 | 4 | 84 | 0.0 | 0.0 | 0.00 | 0.00 | 0.00 | 45 | 1017.3 |
| 20260503072459 | 5 | 90 | 0.0 | 4.8 | 0.00 | 0.00 | 0.00 | 43 | 1017.3 |
| 20260503071458 | 5 | 93 | 0.0 | 0.0 | 0.00 | 0.00 | 0.00 | 44 | 1017.3 |
| 20260503070426 | 5 | 84 | 0.0 | 0.0 | 0.00 | 0.00 | 0.00 | 46 | 1017.1 |
| 20260503054438 | 5 | 83 | 0.0 | 0.0 | 0.00 | 0.00 | 0.00 | 45 | 1016.7 |
| 20260503053437 | 5 | 83 | 0.0 | 0.0 | 0.00 | 0.00 | 0.00 | 43 | 1016.6 |
| 20260503052410 | 6 | 83 | 0.0 | 0.0 | 0.00 | 0.00 | 0.00 | 44 | 1016.6 |
| 20260503051422 | 5 | 78 | 0.0 | 1.6 | 0.00 | 0.00 | 0.00 | 42 | 1016.6 |
| 20260503050442 | 6 | 39 | 0.0 | 0.0 | 0.00 | 0.00 | 0.00 | 43 | 1016.5 |
| 20260503045506 | 6 | 39 | 0.0 | 0.0 | 0.00 | 0.00 | 0.00 | 41 | 1016.4 |
| 20260503044511 | 6 | 39 | 0.0 | 0.0 | 0.00 | 0.00 | 0.00 | 40 | 1016.3 |
| 20260503043500 | 6 | 39 | 0.0 | 0.0 | 0.00 | 0.00 | 0.00 | 39 | 1016.2 |
| 20260503042521 | 7 | 39 | 0.0 | 0.0 | 0.00 | 0.00 | 0.00 | 39 | 1016.2 |
| 20260503041459 | 7 | 39 | 0.0 | 0.0 | 0.00 | 0.00 | 0.00 | 38 | 1016.1 |
| 20260503040456 | 7 | 39 | 0.0 | 0.0 | 0.00 | 0.00 | 0.00 | 38 | 1016.1 |
| 20260503035455 | 8 | 39 | 0.0 | 0.0 | 0.00 | 0.00 | 0.00 | 34 | 1015.9 |
| 20260503034423 | 8 | 39 | 0.0 | 0.0 | 0.00 | 0.00 | 0.00 | 35 | 1015.8 |
| 20260503032255 | 10 | 39 | 0.0 | 0.0 | 0.00 | 0.00 | 0.00 | 33 | 1015.5 |
| 20260503031321 | 10 | 39 | 0.0 | 0.0 | 0.00 | 0.00 | 0.00 | 29 | 1015.4 |
| 20260503030310 | 10 | 39 | 0.0 | 0.0 | 0.00 | 0.00 | 0.00 | 26 | 1015.3 |
| 20260503025257 | 11 | 39 | 0.0 | 0.0 | 0.00 | 0.00 | 0.00 | 25 | 1015.2 |
| 20260503024318 | 12 | 17 | 0.0 | 3.2 | 0.00 | 0.00 | 0.00 | 22 | 1014.9 |
| 20260503022202 | 12 | 57 | 0.0 | 0.0 | 0.00 | 0.00 | 0.00 | 20 | 1014.4 |
| 20260503021209 | 13 | 57 | 0.0 | 1.6 | 0.00 | 0.00 | 0.00 | 20 | 1014.2 |